Location: Cherryland
(37.6794°N, 122.1033°W)
Time: 22:13:20
(UTC+00:00)

ATLAS 2AS CENTAUR R/B - Pass Details

Date: 14 December 2025
Orbit: 1049 x 1162 km, 63.7° (Epoch: 14 January)

Event Time Altitude Azimuth Distance (km) Brightness Sun altitude
Rises 14:12:19 0° 232° (SW) 3,947 5.4 -12.3°
Reaches altitude 10° 14:15:11 10° 239° (WSW) 2,974 4.7 -11.7°
Maximum altitude 14:21:50 43° 310° (NW) 1,488 3.1 -10.5°
Drops below altitude 10° 14:28:22 10° 21° (NNE) 2,910 5.0 -9.3°
Sets 14:31:09 0° 28° (NNE) 3,854 5.7 -8.8°
